RYR61LJ LEPA-LEZL

Flight info

Callsign RYR61LJ
Flight time 1h 14m
Altitude 37000
Route EPAMA N733 VLC M985 YES N747 BLN
Aircraft A320/M-SDE3FGHIRWY/LB1

Departure

Time 2026-04-19 05:19
Airport Palma de Mallorca Airport (LEPA)

Arrival

Time 2026-04-19 06:33
Airport Seville Airport (LEZL)
Time Latitude Longitude Altitude Speed Heading
2026-04-19 04:46 39.54718 2.73680 35 ft 0 kts 59°
2026-04-19 05:07 39.54713 2.73670 35 ft 4 kts 59°
2026-04-19 05:08 39.54699 2.73640 35 ft 4 kts 62°
2026-04-19 05:08 39.54702 2.73584 35 ft 1 kts 148°
2026-04-19 05:08 39.54706 2.73581 34 ft 0 kts 148°
2026-04-19 05:13 39.54701 2.73585 35 ft 3 kts 148°
2026-04-19 05:14 39.54667 2.73615 35 ft 9 kts 137°
2026-04-19 05:14 39.54676 2.73708 36 ft 14 kts 59°
2026-04-19 05:14 39.54737 2.73839 36 ft 20 kts 58°
2026-04-19 05:14 39.54828 2.73981 36 ft 21 kts 18°
2026-04-19 05:15 39.54972 2.73994 36 ft 21 kts
2026-04-19 05:15 39.55108 2.73904 36 ft 23 kts 328°
2026-04-19 05:15 39.55251 2.73790 36 ft 26 kts 328°
2026-04-19 05:15 39.55409 2.73665 35 ft 28 kts 329°
2026-04-19 05:16 39.55561 2.73544 29 ft 21 kts 329°
2026-04-19 05:16 39.55664 2.73530 27 ft 17 kts 43°
2026-04-19 05:16 39.55734 2.73669 26 ft 20 kts 58°
2026-04-19 05:16 39.55813 2.73834 25 ft 23 kts 58°
2026-04-19 05:17 39.55901 2.74021 22 ft 26 kts 58°
2026-04-19 05:17 39.55996 2.74222 19 ft 25 kts 58°
2026-04-19 05:17 39.56145 2.74353 18 ft 23 kts 19°
2026-04-19 05:17 39.56237 2.74288 18 ft 8 kts 270°
2026-04-19 05:18 39.56177 2.74148 18 ft 41 kts 238°
2026-04-19 05:18 39.55906 2.73577 23 ft 104 kts 238°
2026-04-19 05:18 39.55436 2.72591 24 ft 153 kts 238°
2026-04-19 05:18 39.54836 2.71319 368 ft 166 kts 239°
2026-04-19 05:19 39.54247 2.70030 1005 ft 166 kts 239°
2026-04-19 05:19 39.53650 2.68747 1643 ft 166 kts 238°
2026-04-19 05:19 39.52991 2.67459 2020 ft 181 kts 236°
2026-04-19 05:19 39.52236 2.66018 2273 ft 204 kts 236°
2026-04-19 05:20 39.51409 2.64435 2684 ft 220 kts 237°
2026-04-19 05:20 39.50547 2.62775 3468 ft 222 kts 237°
2026-04-19 05:20 39.49681 2.61095 4224 ft 226 kts 237°
2026-04-19 05:20 39.48803 2.59383 4981 ft 229 kts 237°
2026-04-19 05:21 39.47916 2.57647 5714 ft 233 kts 237°
2026-04-19 05:21 39.47012 2.55881 6458 ft 237 kts 237°
2026-04-19 05:21 39.46104 2.54115 7164 ft 240 kts 237°
2026-04-19 05:21 39.45237 2.52249 7837 ft 247 kts 249°
2026-04-19 05:22 39.45100 2.49976 8141 ft 268 kts 286°
2026-04-19 05:22 39.45793 2.47646 8593 ft 284 kts 291°
2026-04-19 05:22 39.46383 2.45170 9328 ft 290 kts 286°
2026-04-19 05:22 39.46872 2.42615 10121 ft 294 kts 283°
2026-04-19 05:23 39.47305 2.39942 10487 ft 314 kts 281°
2026-04-19 05:23 39.47717 2.37063 10690 ft 336 kts 280°
2026-04-19 05:23 39.48113 2.34067 11206 ft 345 kts 280°
2026-04-19 05:23 39.48508 2.30973 11884 ft 348 kts 279°
2026-04-19 05:24 39.48901 2.27860 12600 ft 351 kts 279°
2026-04-19 05:24 39.49298 2.24727 13320 ft 354 kts 279°
2026-04-19 05:24 39.49697 2.21619 14019 ft 356 kts 279°
2026-04-19 05:24 39.50110 2.18438 14644 ft 359 kts 279°
2026-04-19 05:25 39.50528 2.15238 15270 ft 361 kts 279°
2026-04-19 05:25 39.50949 2.12013 15904 ft 363 kts 279°
2026-04-19 05:25 39.51365 2.08813 16508 ft 365 kts 279°
2026-04-19 05:25 39.51784 2.05555 17129 ft 367 kts 279°
2026-04-19 05:26 39.52207 2.02270 17755 ft 370 kts 279°
2026-04-19 05:26 39.52634 1.98970 18400 ft 372 kts 279°
2026-04-19 05:26 39.53059 1.95688 18932 ft 375 kts 279°
2026-04-19 05:26 39.53491 1.92331 19498 ft 378 kts 279°
2026-04-19 05:27 39.53923 1.88953 20067 ft 381 kts 279°
2026-04-19 05:27 39.54357 1.85561 20625 ft 383 kts 279°
2026-04-19 05:27 39.54797 1.82138 21187 ft 386 kts 279°
2026-04-19 05:27 39.55239 1.78691 21718 ft 389 kts 279°
2026-04-19 05:28 39.55681 1.75215 22240 ft 392 kts 279°
2026-04-19 05:28 39.56121 1.71713 22753 ft 395 kts 279°
2026-04-19 05:28 39.56561 1.68187 23263 ft 398 kts 279°
2026-04-19 05:28 39.57007 1.64640 23743 ft 400 kts 279°
2026-04-19 05:29 39.57452 1.61095 24151 ft 403 kts 279°
2026-04-19 05:29 39.57902 1.57498 24560 ft 405 kts 279°
2026-04-19 05:29 39.58357 1.53869 24960 ft 408 kts 279°
2026-04-19 05:29 39.58661 1.51455 25227 ft 409 kts 279°
2026-04-19 05:30 39.59265 1.46606 25742 ft 412 kts 279°
2026-04-19 05:30 39.59723 1.42917 26122 ft 414 kts 279°
2026-04-19 05:30 39.60025 1.40464 26371 ft 416 kts 278°
2026-04-19 05:30 39.60227 1.36714 26735 ft 418 kts 269°
2026-04-19 05:31 39.60040 1.32930 27096 ft 421 kts 266°
2026-04-19 05:31 39.59821 1.29134 27464 ft 423 kts 266°
2026-04-19 05:31 39.59604 1.25319 27833 ft 425 kts 266°
2026-04-19 05:31 39.59389 1.21476 28190 ft 427 kts 266°
2026-04-19 05:32 39.59177 1.17672 28544 ft 429 kts 266°
2026-04-19 05:32 39.58959 1.13789 28897 ft 432 kts 266°
2026-04-19 05:32 39.58737 1.09891 29250 ft 434 kts 266°
2026-04-19 05:32 39.58513 1.05983 29588 ft 436 kts 266°
2026-04-19 05:33 39.58286 1.02040 29925 ft 438 kts 266°
2026-04-19 05:33 39.58055 0.98087 30282 ft 439 kts 266°
2026-04-19 05:33 39.57827 0.94197 30697 ft 438 kts 266°
2026-04-19 05:33 39.57594 0.90267 31138 ft 436 kts 266°
2026-04-19 05:34 39.57360 0.86342 31588 ft 434 kts 266°
2026-04-19 05:34 39.57130 0.82494 32035 ft 432 kts 266°
2026-04-19 05:34 39.56897 0.78616 32493 ft 430 kts 266°
2026-04-19 05:34 39.56664 0.74757 32945 ft 428 kts 266°
2026-04-19 05:35 39.56431 0.70918 33397 ft 426 kts 266°
2026-04-19 05:35 39.56196 0.67094 33846 ft 424 kts 266°
2026-04-19 05:35 39.55960 0.63293 34278 ft 423 kts 266°
2026-04-19 05:35 39.55728 0.59502 34660 ft 421 kts 266°
2026-04-19 05:36 39.55498 0.55724 35027 ft 419 kts 266°
2026-04-19 05:36 39.55270 0.51963 35385 ft 418 kts 266°
2026-04-19 05:36 39.55038 0.48209 35741 ft 416 kts 266°
2026-04-19 05:36 39.54804 0.44524 36067 ft 415 kts 266°
2026-04-19 05:37 39.54566 0.40795 36406 ft 414 kts 266°
2026-04-19 05:37 39.54328 0.37081 36723 ft 412 kts 266°
2026-04-19 05:37 39.54090 0.33376 37027 ft 412 kts 266°
2026-04-19 05:38 39.53610 0.25941 37124 ft 416 kts 266°
2026-04-19 05:38 39.53121 0.18488 37120 ft 418 kts 266°
2026-04-19 05:39 39.52630 0.10975 37121 ft 418 kts 266°
2026-04-19 05:39 39.52130 0.03463 37118 ft 418 kts 266°
2026-04-19 05:40 39.51630 -0.04004 37120 ft 418 kts 266°
2026-04-19 05:40 39.51124 -0.11527 37131 ft 419 kts 266°
2026-04-19 05:41 39.50611 -0.19048 37137 ft 419 kts 265°
2026-04-19 05:41 39.50094 -0.26543 37146 ft 419 kts 265°
2026-04-19 05:42 39.49572 -0.34088 37150 ft 420 kts 265°
2026-04-19 05:42 39.49048 -0.41586 37153 ft 420 kts 265°
2026-04-19 05:43 39.47637 -0.48907 37158 ft 423 kts 247°
2026-04-19 05:43 39.44453 -0.55322 37149 ft 426 kts 235°
2026-04-19 05:44 39.40893 -0.61402 37142 ft 426 kts 235°
2026-04-19 05:44 39.37309 -0.67511 37140 ft 426 kts 235°
2026-04-19 05:45 39.33713 -0.73625 37143 ft 427 kts 235°
2026-04-19 05:45 39.30112 -0.79738 37149 ft 427 kts 235°
2026-04-19 05:46 39.26524 -0.85803 37155 ft 427 kts 235°
2026-04-19 05:46 39.22915 -0.91910 37163 ft 427 kts 235°
2026-04-19 05:47 39.19296 -0.98012 37169 ft 427 kts 235°
2026-04-19 05:47 39.15698 -1.04075 37176 ft 427 kts 235°
2026-04-19 05:48 39.12076 -1.10165 37178 ft 427 kts 235°
2026-04-19 05:48 39.08440 -1.16257 37182 ft 427 kts 235°
2026-04-19 05:49 39.04839 -1.22284 37184 ft 427 kts 235°
2026-04-19 05:49 39.01216 -1.28342 37185 ft 427 kts 235°
2026-04-19 05:50 38.97587 -1.34398 37185 ft 427 kts 235°
2026-04-19 05:50 38.93948 -1.40450 37185 ft 427 kts 235°
2026-04-19 05:51 38.90316 -1.46489 37184 ft 427 kts 234°
2026-04-19 05:51 38.86702 -1.52483 37178 ft 427 kts 234°
2026-04-19 05:52 38.83054 -1.58529 37176 ft 427 kts 234°
2026-04-19 05:52 38.79399 -1.64554 37176 ft 427 kts 234°
2026-04-19 05:53 38.75762 -1.70544 37178 ft 427 kts 234°
2026-04-19 05:53 38.72106 -1.76562 37177 ft 427 kts 234°
2026-04-19 05:54 38.68455 -1.82577 37179 ft 427 kts 234°
2026-04-19 05:54 38.64814 -1.88548 37183 ft 427 kts 234°
2026-04-19 05:55 38.61145 -1.94554 37186 ft 427 kts 234°
2026-04-19 05:55 38.57493 -2.00514 37191 ft 427 kts 234°
2026-04-19 05:56 38.53820 -2.06503 37193 ft 427 kts 234°
2026-04-19 05:56 38.50164 -2.12449 37193 ft 427 kts 234°
2026-04-19 05:57 38.46477 -2.18423 37190 ft 427 kts 234°
2026-04-19 05:57 38.42827 -2.24355 37193 ft 427 kts 234°
2026-04-19 05:58 38.39145 -2.30316 37193 ft 427 kts 234°
2026-04-19 05:58 38.36141 -2.36711 37187 ft 421 kts 251°
2026-04-19 05:59 38.34713 -2.43906 37181 ft 419 kts 260°
2026-04-19 05:59 38.33556 -2.51187 37178 ft 419 kts 260°
2026-04-19 06:00 38.32404 -2.58417 37176 ft 419 kts 259°
2026-04-19 06:00 38.31237 -2.65690 37173 ft 419 kts 259°
2026-04-19 06:01 38.30065 -2.72957 37172 ft 418 kts 259°
2026-04-19 06:01 38.28888 -2.80224 37173 ft 418 kts 259°
2026-04-19 06:02 38.27718 -2.87435 37169 ft 418 kts 259°
2026-04-19 06:02 38.26537 -2.94692 37167 ft 418 kts 259°
2026-04-19 06:03 38.25352 -3.01953 37166 ft 418 kts 259°
2026-04-19 06:03 38.24170 -3.09161 37163 ft 418 kts 259°
2026-04-19 06:04 38.22981 -3.16372 37161 ft 418 kts 259°
2026-04-19 06:04 38.21784 -3.23602 37161 ft 417 kts 259°
2026-04-19 06:05 38.20580 -3.30855 37166 ft 417 kts 259°
2026-04-19 06:05 38.19376 -3.38038 37156 ft 417 kts 259°
2026-04-19 06:06 38.18161 -3.45268 37155 ft 417 kts 259°
2026-04-19 06:06 38.16949 -3.52454 37155 ft 417 kts 259°
2026-04-19 06:07 38.15726 -3.59672 37155 ft 417 kts 259°
2026-04-19 06:07 38.14201 -3.66789 37154 ft 418 kts 254°
2026-04-19 06:08 38.12490 -3.73801 37148 ft 418 kts 254°
2026-04-19 06:08 38.10762 -3.80858 37148 ft 418 kts 254°
2026-04-19 06:09 38.09031 -3.87914 37156 ft 418 kts 254°
2026-04-19 06:09 38.07308 -3.94918 37151 ft 418 kts 254°
2026-04-19 06:10 38.05572 -4.01957 37157 ft 418 kts 253°
2026-04-19 06:10 38.03830 -4.08993 37148 ft 418 kts 253°
2026-04-19 06:11 38.02077 -4.16029 36880 ft 418 kts 253°
2026-04-19 06:11 38.01207 -4.19522 36613 ft 418 kts 253°
2026-04-19 06:11 38.00332 -4.23043 36354 ft 418 kts 253°
2026-04-19 06:12 37.98566 -4.30103 35078 ft 421 kts 253°
2026-04-19 06:12 37.97671 -4.33665 34339 ft 425 kts 253°
2026-04-19 06:12 37.96769 -4.37254 33444 ft 429 kts 253°
2026-04-19 06:12 37.95864 -4.40858 32876 ft 426 kts 253°
2026-04-19 06:13 37.94977 -4.44376 32385 ft 422 kts 253°
2026-04-19 06:13 37.94085 -4.47915 31862 ft 418 kts 253°
2026-04-19 06:13 37.93203 -4.51409 31349 ft 415 kts 253°
2026-04-19 06:13 37.92325 -4.54891 30832 ft 412 kts 252°
2026-04-19 06:14 37.91457 -4.58334 30322 ft 409 kts 252°
2026-04-19 06:14 37.90592 -4.61760 29761 ft 406 kts 252°
2026-04-19 06:14 37.89743 -4.65111 29267 ft 402 kts 252°
2026-04-19 06:14 37.88891 -4.68467 28764 ft 398 kts 252°
2026-04-19 06:15 37.88046 -4.71787 28271 ft 394 kts 252°
2026-04-19 06:15 37.87204 -4.75081 27779 ft 391 kts 252°
2026-04-19 06:15 37.86368 -4.78349 27305 ft 388 kts 252°
2026-04-19 06:15 37.85539 -4.81586 26834 ft 386 kts 252°
2026-04-19 06:16 37.84741 -4.84817 26368 ft 383 kts 256°
2026-04-19 06:16 37.84376 -4.86997 26052 ft 382 kts 259°
2026-04-19 06:16 37.83708 -4.91379 25409 ft 381 kts 259°
2026-04-19 06:16 37.83374 -4.93561 25121 ft 380 kts 259°
2026-04-19 06:17 37.82871 -4.96843 24660 ft 379 kts 259°
2026-04-19 06:17 37.82367 -5.00115 24214 ft 379 kts 259°
2026-04-19 06:17 37.81862 -5.03381 23766 ft 378 kts 259°
2026-04-19 06:17 37.81354 -5.06652 23259 ft 377 kts 259°
2026-04-19 06:18 37.80848 -5.09907 22806 ft 375 kts 259°
2026-04-19 06:18 37.80353 -5.13096 22359 ft 372 kts 259°
2026-04-19 06:18 37.79853 -5.16304 21891 ft 370 kts 259°
2026-04-19 06:18 37.79351 -5.19487 21427 ft 367 kts 259°
2026-04-19 06:19 37.78849 -5.22652 20948 ft 365 kts 259°
2026-04-19 06:19 37.78350 -5.25799 20475 ft 363 kts 259°
2026-04-19 06:19 37.77863 -5.28897 19995 ft 361 kts 259°
2026-04-19 06:19 37.77373 -5.32018 19505 ft 359 kts 259°
2026-04-19 06:20 37.76886 -5.35115 19023 ft 358 kts 259°
2026-04-19 06:20 37.76406 -5.38156 18536 ft 356 kts 259°
2026-04-19 06:20 37.75919 -5.41228 18008 ft 355 kts 259°
2026-04-19 06:20 37.75434 -5.44281 17517 ft 352 kts 259°
2026-04-19 06:21 37.74954 -5.47309 17022 ft 349 kts 258°
2026-04-19 06:21 37.74476 -5.50317 16548 ft 347 kts 258°
2026-04-19 06:21 37.74008 -5.53257 16073 ft 344 kts 258°
2026-04-19 06:21 37.73535 -5.56218 15596 ft 343 kts 258°
2026-04-19 06:22 37.73062 -5.59175 15120 ft 341 kts 258°
2026-04-19 06:22 37.72590 -5.62116 14642 ft 340 kts 258°
2026-04-19 06:22 37.72121 -5.65038 14167 ft 339 kts 257°
2026-04-19 06:22 37.71659 -5.67911 13672 ft 338 kts 257°
2026-04-19 06:23 37.71190 -5.70814 13186 ft 336 kts 257°
2026-04-19 06:23 37.70724 -5.73702 12716 ft 334 kts 257°
2026-04-19 06:23 37.70261 -5.76568 12256 ft 332 kts 257°
2026-04-19 06:23 37.69801 -5.79414 11793 ft 330 kts 257°
2026-04-19 06:24 37.69344 -5.82245 11338 ft 328 kts 257°
2026-04-19 06:24 37.68888 -5.85071 10883 ft 327 kts 257°
2026-04-19 06:24 37.68433 -5.87879 10437 ft 326 kts 257°
2026-04-19 06:24 37.67985 -5.90639 10283 ft 315 kts 257°
2026-04-19 06:25 37.67551 -5.93300 10163 ft 304 kts 257°
2026-04-19 06:25 37.67128 -5.95875 10021 ft 294 kts 257°
2026-04-19 06:25 37.66721 -5.98361 9660 ft 293 kts 257°
2026-04-19 06:25 37.66114 -6.00795 9315 ft 290 kts 243°
2026-04-19 06:26 37.65001 -6.02909 8855 ft 290 kts 226°
2026-04-19 06:26 37.63465 -6.04541 8421 ft 284 kts 213°
2026-04-19 06:26 37.61868 -6.05929 8036 ft 273 kts 214°
2026-04-19 06:26 37.60332 -6.07274 7657 ft 264 kts 214°
2026-04-19 06:27 37.58836 -6.08589 7297 ft 259 kts 213°
2026-04-19 06:27 37.57347 -6.09900 6901 ft 263 kts 213°
2026-04-19 06:27 37.55852 -6.11217 6499 ft 267 kts 213°
2026-04-19 06:27 37.54318 -6.12567 6099 ft 270 kts 213°
2026-04-19 06:28 37.52753 -6.13898 5713 ft 271 kts 207°
2026-04-19 06:28 37.50970 -6.14593 5331 ft 269 kts 184°
2026-04-19 06:28 37.49121 -6.14329 4946 ft 269 kts 165°
2026-04-19 06:28 37.47350 -6.13710 4545 ft 262 kts 165°
2026-04-19 06:29 37.45625 -6.13108 4176 ft 252 kts 165°
2026-04-19 06:29 37.43966 -6.12530 3815 ft 242 kts 164°
2026-04-19 06:29 37.42519 -6.11586 3483 ft 232 kts 135°
2026-04-19 06:29 37.41765 -6.09861 3119 ft 233 kts 103°
2026-04-19 06:30 37.41675 -6.07794 2674 ft 235 kts 90°
2026-04-19 06:30 37.41712 -6.05792 2374 ft 222 kts 89°
2026-04-19 06:30 37.41732 -6.03898 2081 ft 211 kts 90°
2026-04-19 06:30 37.41741 -6.02102 1823 ft 199 kts 89°
2026-04-19 06:31 37.41749 -6.00427 1574 ft 185 kts 89°
2026-04-19 06:31 37.41756 -5.98878 1320 ft 168 kts 89°
2026-04-19 06:31 37.41762 -5.97471 1093 ft 155 kts 88°
2026-04-19 06:31 37.41770 -5.96150 823 ft 148 kts 88°
2026-04-19 06:32 37.41780 -5.94887 686 ft 143 kts 88°
2026-04-19 06:32 37.41762 -5.93639 514 ft 141 kts 88°
2026-04-19 06:32 37.41786 -5.92400 301 ft 140 kts 87°
2026-04-19 06:32 37.41786 -5.91174 137 ft 140 kts 87°
2026-04-19 06:33 37.41794 -5.90035 98 ft 110 kts 90°
2026-04-19 06:33 37.41795 -5.89330 100 ft 36 kts 89°
2026-04-19 06:33 37.41855 -5.89260 100 ft 13 kts 349°
2026-04-19 06:33 37.41945 -5.89326 99 ft 17 kts 326°
2026-04-19 06:34 37.42036 -5.89424 98 ft 19 kts 314°
2026-04-19 06:34 37.42134 -5.89558 96 ft 23 kts 316°
2026-04-19 06:34 37.42255 -5.89706 94 ft 23 kts 320°
2026-04-19 06:34 37.42304 -5.89745 95 ft 12 kts 324°
2026-04-19 06:35 37.42333 -5.89780 96 ft 4 kts 315°
2026-04-19 06:35 37.42346 -5.89797 94 ft 0 kts 314°